Flag for Norway Weather past 2 weeks in Narvik, Norway

Now
46 °F

Overcast.


Feels Like: 46 °F
Forecast: 39 / 53 °F
Wind: 1 mph from North

Location: Evenes

Current Time: Sep 2, 2015 at 2:53:16 AM

Latest Report: Sep 2, 2015 at 2:20 AM


Visibility: N/A

Pressure: 30.15 "Hg

Humidity: 82%

Dew point: 41 °F

Location of NarvikLocation

Historic Weather in Narvik — Graph

°F

Narvik temperature yesterday

Maximum temperature yesterday: 52 °F (at 10:50 AM)
Minimum temperature yesterday: 45 °F (at 4:20 AM)
Average temperature yesterday: 48 °F

Past Weeks' High & Low Weather Summary

 TemperatureHumidityPressure
High75 °F (Aug 20, 3:50 PM)100% (Aug 19, 2:50 AM)30.33 "Hg (Aug 19, 2:50 AM)
Low45 °F (Sep 1, 4:20 AM)36% (Aug 20, 3:50 PM)29.36 "Hg (Aug 28, 2:50 PM)
Average57 °F79%29.97 "Hg
* Reported Aug 18 12:50 AM — Sep 2 12:50 AM, Narvik, Weather by CustomWeather, © 2015

Note: Actual official high and low records may vary slightly from our data, if they occured in-between our weather recording intervals... More about our weather records

Advertising

Narvik weather history for previous 24 hours

 ConditionsComfort  
Time TempWeatherWind HumidityBarometerVisibility
12:50 AM
Wed, Sep 2
46 °FPassing clouds.3 mph82%30.15 "HgN/A
11:20 PM
Tue, Sep 1
46 °FOvercast.5 mph82%30.15 "HgN/A
10:50 PM46 °FPassing clouds.3 mph82%30.18 "HgN/A
9:50 PM46 °FPassing clouds.3 mph82%30.15 "HgN/A
8:50 PM46 °FPartly sunny.5 mph82%30.15 "HgN/A
7:50 PM46 °FPartly sunny.2 mph82%30.15 "HgN/A
7:20 PM46 °FPartly sunny.2 mph82%30.15 "HgN/A
6:50 PM48 °FPartly sunny.3 mph76%30.15 "HgN/A
6:20 PM46 °FPartly sunny.6 mph82%30.18 "HgN/A
4:50 PM50 °FPartly sunny.6 mph71%30.15 "HgN/A
3:50 PM50 °FOvercast.8 mph67%30.15 "HgN/A
2:50 PM50 °FPartly sunny.6 mph67%30.15 "HgN/A
1:50 PM52 °FPartly sunny.5 mph67%30.15 "HgN/A
12:50 PM50 °FScattered showers. Partly sunny.10 mph71%30.15 "HgN/A
11:50 AM52 °FScattered showers. Partly sunny.10 mph62%30.12 "HgN/A
10:50 AM52 °FScattered showers. Partly sunny.9 mph67%30.12 "HgN/A
9:50 AM48 °FDrizzle. Partly sunny.5 mph87%30.12 "HgN/A
8:50 AM48 °FPartly sunny.6 mph87%30.09 "HgN/A
8:20 AM46 °FBroken clouds.5 mph93%30.09 "HgN/A
7:50 AM46 °FSprinkles. Partly sunny.5 mph93%30.09 "Hg5 mi
6:50 AM45 °FPartly sunny.2 mph93%30.09 "HgN/A
5:20 AM45 °FOvercast.2 mph87%30.07 "HgN/A
4:50 AM45 °FPassing clouds.2 mph93%30.07 "HgN/A
4:20 AM45 °FOvercast.5 mph93%30.07 "HgN/A
3:50 AM46 °FPassing clouds.5 mph82%30.07 "HgN/A
3:20 AM46 °FMostly cloudy.3 mph87%30.07 "HgN/A
2:50 AM46 °FMostly cloudy.5 mph87%30.04 "HgN/A
2:20 AM46 °FPartly cloudy.7 mph87%30.04 "HgN/A
Weather by CustomWeather, © 2015

See weather overviewHow to use our weather pages